Weather History for LFKJ - December, 2012

Change the Weather History Date:

Wednesday, December 12, 2012

  Actual Average Record
Temperature  
Mean Temperature 43 °F -  
Max Temperature 55 °F 56 °F 64 °F (2000)
Min Temperature 31 °F 39 °F 31 °F (2012)
Degree Days  
Heating Degree Days 22    
Moisture  
Dew Point 29 °F    
Average Humidity 65    
Maximum Humidity 87    
Minimum Humidity 31    
Precipitation  
Precipitation 0.00 in 0.10 in - ()
Sea Level Pressure  
Sea Level Pressure 30.07 in    
Wind  
Wind Speed 7 mph ()    
Max Wind Speed 12 mph    
Max Gust Speed -    
Visibility 6.4 miles    
Events      
Averages and records for this station are not official NWS values.
T = Trace of Precipitation, MM = Missing Value Source: Averaged Metar Reports

Daily Weather History Graph

Daily Weather History Graph

Search for Another Location

Airport or City:

Trip Planner

Search our weather history database for the weather conditions in past years. The results will help you decide how hot, cold, wet, or windy it might be!

Date:

Astronomy

Dec. 12, 2012 Rise Set
Actual Time 7:43 AM CET 4:53 PM CET
Civil Twilight 7:11 AM CET 5:25 PM CET
Nautical Twilight 6:36 AM CET 6:00 PM CET
Astronomical Twilight 6:02 AM CET 6:34 PM CET
Moon 6:28 AM CET (12/12) 4:14 PM CET (12/12)
Length of Visible Light 10h 13m
Length of Day
9h 10m
Waning Crescent, 1% of the Moon is Illuminated
Dec 12
Waning Crescent
Dec 13
New
Dec 20
First Quarter
Dec 28
Full
Jan 5
Last Quarter

Hourly Weather History & Observations

Time (CET) Temp. Windchill Dew Point Humidity Pressure Visibility Wind Dir Wind Speed Gust Speed Precip Events Conditions
12:00 AM 37.4 °F 30.8 °F 32.0 °F 81% 30.01 in - NE 9.2 mph - N/A   Clear
12:30 AM 37.4 °F 32.1 °F 32.0 °F 81% 30.01 in 6.2 mi NNE 6.9 mph - N/A   Unknown
1:00 AM 36 °F - 31 °F 76% 30.02 in 8 mi NE 9.2 mph - -   Clear
1:00 AM 35.6 °F 28.6 °F 32.0 °F 87% 30.01 in 6.2 mi NE 9.2 mph - N/A   Unknown
1:30 AM 35.6 °F 28.0 °F 30.2 °F 81% 30.01 in 6.2 mi NE 10.4 mph - N/A   Unknown
2:00 AM 35.6 °F 28.6 °F 30.2 °F 81% 30.01 in 6.2 mi NE 9.2 mph - N/A   Unknown
2:30 AM 32.0 °F 24.2 °F 28.4 °F 87% 30.01 in 6.2 mi NE 9.2 mph - N/A   Unknown
3:00 AM 33.8 °F 27.7 °F 30.2 °F 87% 30.04 in 6.2 mi NE 6.9 mph - N/A   Unknown
3:30 AM 33.8 °F 27.0 °F 28.4 °F 81% 30.04 in 6.2 mi NE 8.1 mph - N/A   Unknown
4:00 AM 33.8 °F 27.0 °F 28.4 °F 81% 30.04 in 6.2 mi NE 8.1 mph - N/A   Unknown
4:30 AM 32.0 °F 23.6 °F 28.4 °F 87% 30.04 in 6.2 mi NE 10.4 mph - N/A   Unknown
5:00 AM 35.6 °F 29.2 °F 28.4 °F 75% 30.04 in 6.2 mi NE 8.1 mph - N/A   Unknown
5:30 AM 33.8 °F 26.4 °F 28.4 °F 81% 30.04 in 6.2 mi NE 9.2 mph - N/A   Unknown
6:00 AM 32.0 °F 24.2 °F 28.4 °F 87% 30.04 in - NNE 9.2 mph - N/A   Clear
6:30 AM 32.0 °F 23.6 °F 26.6 °F 80% 30.04 in - NE 10.4 mph - N/A   Clear
7:00 AM 33 °F - 27 °F 71% 30.07 in 25 mi NE 10.4 mph - -  
7:00 AM 32.0 °F 23.6 °F 26.6 °F 80% 30.06 in - NNE 10.4 mph - N/A   Clear
7:30 AM 32.0 °F 24.2 °F 26.6 °F 80% 30.06 in 6.2 mi NE 9.2 mph - N/A   Partly Cloudy
8:00 AM 33.8 °F 26.4 °F 26.6 °F 75% 30.06 in 6.2 mi NE 9.2 mph - N/A   Partly Cloudy
8:30 AM 33.8 °F 25.3 °F 28.4 °F 81% 30.06 in 6.2 mi NE 11.5 mph - N/A   Partly Cloudy
9:00 AM 35.6 °F 28.6 °F 28.4 °F 75% 30.09 in 6.2 mi NE 9.2 mph - N/A   Partly Cloudy
9:30 AM 39.2 °F 33.0 °F 30.2 °F 70% 30.09 in 6.2 mi NE 9.2 mph - N/A   Partly Cloudy
10:00 AM 41.0 °F 36.4 °F 30.2 °F 65% 30.09 in 6.2 mi NE 6.9 mph - N/A   Partly Cloudy
10:30 AM 44.6 °F 42.2 °F 32.0 °F 61% 30.12 in 6.2 mi NE 4.6 mph - N/A   Partly Cloudy
11:00 AM 48.2 °F - 32.0 °F 54% 30.12 in 6.2 mi NE 3.5 mph - N/A   Partly Cloudy
11:30 AM 51.8 °F - 32.0 °F 47% 30.09 in 6.2 mi Variable 2.3 mph - N/A   Partly Cloudy
12:00 PM 53.6 °F - 30.2 °F 41% 30.09 in 6.2 mi Variable 2.3 mph - N/A   Partly Cloudy
12:30 PM 53.6 °F - 26.6 °F 35% 30.09 in 6.2 mi WSW 3.5 mph - N/A   Partly Cloudy
1:00 PM 53.6 °F - 30.2 °F 41% 30.09 in 6.2 mi SW 3.5 mph - N/A   Partly Cloudy
1:30 PM 53.6 °F - 32.0 °F 44% 30.09 in 6.2 mi Variable 3.5 mph - N/A   Partly Cloudy
2:00 PM 55.4 °F - 33.8 °F 44% 30.09 in 6.2 mi SW 4.6 mph - N/A   Partly Cloudy
2:30 PM 55.4 °F - 28.4 °F 36% 30.09 in 6.2 mi SW 4.6 mph - N/A   Partly Cloudy
3:00 PM 55.4 °F - 28.4 °F 36% 30.06 in 6.2 mi WSW 5.8 mph - N/A   Partly Cloudy
3:30 PM 55.4 °F - 26.6 °F 33% 30.06 in - WSW 3.5 mph - N/A   Clear
4:00 PM 55.4 °F - 24.8 °F 31% 30.06 in - WSW 3.5 mph - N/A   Clear
4:30 PM 51.8 °F - 28.4 °F 41% 30.09 in - ESE 2.3 mph - N/A   Clear
5:00 PM 46.4 °F 45.2 °F 28.4 °F 50% 30.09 in 6.2 mi ENE 3.5 mph - N/A   Partly Cloudy
5:30 PM 42.8 °F 38.6 °F 28.4 °F 57% 30.09 in 6.2 mi NE 6.9 mph - N/A   Partly Cloudy
6:00 PM 42.8 °F 38.0 °F 26.6 °F 53% 30.09 in 6.2 mi NE 8.1 mph - N/A   Partly Cloudy
6:30 PM 41.0 °F 34.7 °F 28.4 °F 61% 30.09 in - NE 10.4 mph - N/A   Clear
7:00 PM 40 °F - 28 °F 50% 30.12 in 12 mi NE 9.2 mph - -   Partly Cloudy
7:00 PM 39.2 °F 33.6 °F 28.4 °F 65% 30.09 in 6.2 mi NE 8.1 mph - N/A   Scattered Clouds
7:30 PM 39.2 °F 33.0 °F 28.4 °F 65% 30.09 in 6.2 mi NE 9.2 mph - N/A   Mostly Cloudy
8:00 PM 39.2 °F 32.5 °F 28.4 °F 65% 30.09 in 6.2 mi NE 10.4 mph - N/A   Scattered Clouds
8:30 PM 37.4 °F 30.8 °F 26.6 °F 65% 30.09 in 6.2 mi NE 9.2 mph - N/A   Scattered Clouds
9:00 PM 39.2 °F 32.5 °F 26.6 °F 61% 30.09 in 6.2 mi NE 10.4 mph - N/A   Scattered Clouds
9:30 PM 39.2 °F 33.6 °F 26.6 °F 61% 30.09 in 6.2 mi NNE 8.1 mph - N/A   Scattered Clouds
10:00 PM 37.4 °F 32.1 °F 26.6 °F 65% 30.12 in 6.2 mi NNE 6.9 mph - N/A   Partly Cloudy
10:30 PM 39.2 °F 33.6 °F 26.6 °F 61% 30.12 in 6.2 mi NE 8.1 mph - N/A   Partly Cloudy
11:00 PM 35.6 °F 29.2 °F 26.6 °F 70% 30.12 in 6.2 mi NE 8.1 mph - N/A   Partly Cloudy
11:30 PM 35.6 °F 29.9 °F 26.6 °F 70% 30.12 in 6.2 mi NE 6.9 mph - N/A   Partly Cloudy